Flag for Canada Weather past 2 weeks in Fort Smith, Northwest Territories, Canada

Now
59 °F

Mostly cloudy.


Feels Like: 57 °F
Forecast: 47 / 50 °F
Wind: 10 mph from North

Location: Fort Smith

Current Time: Sep 2, 2015 at 7:00:32 PM

Latest Report: Sep 2, 2015 at 6:00 PM


Visibility: 15 mi

Pressure: 29.86 "Hg

Humidity: 55%

Dew point: 43 °F

Location of Fort SmithLocation

Historic Weather in Fort Smith — Graph

°F

Fort Smith temperature yesterday

Maximum temperature yesterday: 59 °F (at 2:00 PM)
Minimum temperature yesterday: 39 °F (at 6:00 AM)
Average temperature yesterday: 50 °F

Past Weeks' High & Low Weather Summary

 TemperatureHumidityPressure
High73 °F (Aug 29, 4:00 PM)100% (Aug 19, 4:00 PM)30.16 "Hg (Aug 19, 4:00 PM)
Low36 °F (Aug 23, 5:00 AM)27% (Aug 31, 5:00 PM)29.27 "Hg (Aug 30, 8:00 PM)
Average55 °F77%29.70 "Hg
* Reported Aug 18 5:00 PM — Sep 2 5:00 PM, Fort Smith, Weather by CustomWeather, © 2015

Note: Actual official high and low records may vary slightly from our data, if they occured in-between our weather recording intervals... More about our weather records

Advertising

Fort Smith weather history for previous 24 hours

 ConditionsComfort  
Time TempWeatherWind HumidityBarometerVisibility
5:00 PM
Wed, Sep 2
59 °FPartly sunny.12 mph55%29.84 "Hg15 mi
4:00 PM59 °FPartly sunny.9 mph55%29.84 "Hg15 mi
3:00 PM59 °FBroken clouds.10 mph51%29.84 "Hg15 mi
2:00 PM57 °FScattered clouds.10 mph51%29.85 "Hg15 mi
1:00 PM55 °FScattered clouds.15 mph55%29.84 "Hg15 mi
12:00 PM52 °FBroken clouds.15 mph67%29.84 "Hg15 mi
11:00 AM52 °FBroken clouds.13 mph72%29.83 "Hg15 mi
10:00 AM50 °FScattered clouds.12 mph76%29.82 "Hg15 mi
9:00 AM48 °FScattered clouds.12 mph76%29.81 "Hg15 mi
8:00 AM45 °FScattered clouds.8 mph87%29.79 "Hg15 mi
7:00 AM46 °FPartly cloudy.9 mph87%29.76 "Hg15 mi
6:00 AM46 °FPassing clouds.12 mph87%29.73 "Hg15 mi
5:00 AM48 °FLight rain. Passing clouds.8 mph94%29.72 "Hg15 mi
4:00 AM48 °FLight rain. Mostly cloudy.10 mph87%29.71 "Hg15 mi
3:00 AM48 °FPassing clouds.10 mph87%29.69 "Hg15 mi
2:00 AM50 °FMostly cloudy.8 mph88%29.68 "Hg15 mi
1:00 AM48 °FLight rain. Overcast.6 mph94%29.67 "Hg15 mi
12:00 AM48 °FLight rain. Overcast.3 mph94%29.65 "Hg15 mi
11:00 PM
Tue, Sep 1
50 °FLight rain. Overcast.6 mph88%29.66 "Hg15 mi
10:00 PM50 °FOvercast.2 mph82%29.64 "Hg15 mi
9:00 PM50 °FOvercast.3 mph82%29.64 "Hg15 mi
8:00 PM52 °FOvercast.5 mph82%29.62 "Hg15 mi
7:00 PM54 °FOvercast.7 mph77%29.61 "Hg15 mi
Weather by CustomWeather, © 2015

See weather overviewHow to use our weather pages